Terminal Aerodrome Forecast
Issued by NWS

Home | Current Version | Previous Version | Graphics & Text | Print | Product List | Glossary On
Versions: 1 2 3 4 5 6 7 8 9 10 11 12 13 14 15 16 17 18 19
125
FTUS43 KFGF 191120
TAFBJI
TAF
KBJI 191120Z 1912/2012 VRB03KT P6SM SKC
     FM191500 17006KT P6SM FEW200
     FM191800 20010G17KT P6SM VCTS BKN120CB
     FM192100 18008KT P6SM BKN200
     FM200200 16004KT P6SM SCT150
     FM200700 VRB04KT P6SM FEW150=

USA.gov is the U.S. government's official web portal to all federal, state and local government web resources and services.